sat.trackr.live / text

‹ back to catalog

KUIPER-00146

NORAD 65967 · 2025-228W

PAYLOAD ACTIVE UNKNOWN

§ Identity

Operator
Country
US
Launch date
2025-10-14
Launch site
AFETR
Launch vehicle
Mass (kg)
RCS (m²)

External: N2YO · Heavens-Above · Gunter

§ Orbital elements

Epoch: 2026-05-25T00:33:02.947392Z

Period
97.30 min
Inclination
51.9055°
Eccentricity
0.0001004
Mean motion
14.79930369 rev/d
Perigee alt
628.8 km
Apogee alt
630.2 km
Semi-major
7,007.7 km
B*
-2.7871e-4
RAAN
5.6697°
Arg perigee
115.5050°
Mean anomaly
244.6016°
Rev number
3,477

§ Raw data

KUIPER-001461 65967U 25228W   26145.02295078 -.00002345  00000+0 -27871-3 0  99962 65967  51.9055   5.6697 0001004 115.5050 244.6016 14.79930369 34770

JSON: /api/v1/satellites/65967 · /tle

For live sub-satellite position, see the globe view (requires WebGL).

§ Visibility from observer

Set your observer location to see the next 7 days of passes ≥ 10°. The values pass through the URL so the page stays shareable.

No JS? Fill the form by hand. The geolocation button needs JavaScript.